Limerick, Ireland

12:04 AM GMT on January 23, 2017 (GMT +0000)
Shannon

Weather History for EINN - March, 2013

Change the Weather History Date:

Saturday, March 16, 2013

  Actual Average Record
Temperature  
Mean Temperature 38 °F -  
Max Temperature 47 °F 53 °F 62 °F (1999)
Min Temperature 28 °F 40 °F 28 °F (2013)
Degree Days  
Heating Degree Days 28    
Moisture  
Dew Point 32 °F    
Average Humidity 83    
Maximum Humidity 100    
Minimum Humidity 50    
Precipitation  
Precipitation 0.00 in 0.08 in - ()
Sea Level Pressure  
Sea Level Pressure 29.31 in    
Wind  
Wind Speed 6 mph ()    
Max Wind Speed 12 mph    
Max Gust Speed -    
Visibility 6.5 miles    
Events      
Averages and records for this station are not official NWS values.
T = Trace of Precipitation, MM = Missing Value Source: Averaged Metar Reports

Daily Weather History Graph

Daily Weather History Graph

Search for Another Location

Airport or City:

Trip Planner

Search our weather history database for the weather conditions in past years. The results will help you decide how hot, cold, wet, or windy it might be!

Date:

Astronomy

Mar. 16, 2013 Rise Set
Actual Time 6:47 AM GMT 6:42 PM GMT
Civil Twilight 6:13 AM GMT 7:16 PM GMT
Nautical Twilight 5:33 AM GMT 7:56 PM GMT
Astronomical Twilight 4:51 AM GMT 8:38 PM GMT
Moon 8:29 AM GMT (3/16) No Moon Set
Length of Visible Light 13h 02m
Length of Day
11h 54m
Waxing Crescent, 21% of the Moon is Illuminated
Mar 16
Waxing Crescent
Mar 19
First Quarter
Mar 27
Full
Apr 3
Last Quarter
Apr 10
New

Hourly Weather History & Observations

Time (GMT) Temp. Windchill Dew Point Humidity Pressure Visibility Wind Dir Wind Speed Gust Speed Precip Events Conditions
12:00 AM 37 °F - 35 °F 90% 29.34 in 12 mi SE 11.2 mph - -   Partly Cloudy
12:00 AM 37.4 °F 30.3 °F 35.6 °F 93% 29.33 in 6.2 mi SE 10.4 mph - N/A   Partly Cloudy
12:30 AM 37.4 °F 31.4 °F 35.6 °F 93% 29.30 in 6.2 mi ESE 8.1 mph - N/A   Partly Cloudy
1:00 AM 35.6 °F 29.2 °F 35.6 °F 100% 29.30 in 6.2 mi ESE 8.1 mph - N/A   Partly Cloudy
1:30 AM 35.6 °F 29.2 °F 33.8 °F 93% 29.30 in - ESE 8.1 mph - N/A   Clear
2:00 AM 35.6 °F 29.2 °F 33.8 °F 93% 29.30 in - ESE 8.1 mph - N/A   Clear
2:30 AM 33.8 °F 27.0 °F 33.8 °F 100% 29.27 in - East 8.1 mph - N/A   Clear
3:00 AM 33.8 °F 28.6 °F 32.0 °F 93% 29.27 in - East 5.8 mph - N/A   Clear
3:30 AM 33.8 °F 28.6 °F 32.0 °F 93% 29.27 in - East 5.8 mph - N/A   Clear
4:00 AM 33.8 °F - 32.0 °F 93% 29.27 in - Variable 1.2 mph - N/A   Clear
4:30 AM 33.8 °F 30.8 °F 32.0 °F 93% 29.27 in - ENE 3.5 mph - N/A   Clear
5:00 AM 30.2 °F 24.3 °F 30.2 °F 100% 29.27 in - NE 5.8 mph - N/A   Clear
5:30 AM 30.2 °F - 28.4 °F 93% 29.27 in - NNE 2.3 mph - N/A   Clear
6:00 AM 29 °F - 28 °F 95% 29.28 in 12 mi NNW 4.5 mph - -   Scattered Clouds
6:00 AM 28.4 °F - 28.4 °F 100% 29.27 in 6.2 mi NNW 2.3 mph - N/A   Partly Cloudy
6:30 AM 28.4 °F - 28.4 °F 100% 29.27 in 6.2 mi NNW 2.3 mph - N/A   Partly Cloudy
7:00 AM 28.4 °F - 28.4 °F 100% 29.27 in 6.2 mi North 1.2 mph - N/A   Scattered Clouds
7:30 AM 30.2 °F - 28.4 °F 93% 29.27 in 6.2 mi WSW 1.2 mph - N/A   Mostly Cloudy
8:00 AM 30.2 °F - 30.2 °F 100% 29.27 in 6.2 mi NW 2.3 mph - N/A   Mostly Cloudy
8:30 AM 32.0 °F - 30.2 °F 93% 29.27 in 6.2 mi NNE 2.3 mph - N/A   Scattered Clouds
9:00 AM 33.8 °F 29.6 °F 32.0 °F 93% 29.27 in 6.2 mi NW 4.6 mph - N/A   Partly Cloudy
9:30 AM 35.6 °F 30.7 °F 33.8 °F 93% 29.27 in 6.2 mi NNE 5.8 mph - N/A   Partly Cloudy
10:00 AM 39.2 °F 37.0 °F 35.6 °F 87% 29.27 in 6.2 mi NE 3.5 mph - N/A   Partly Cloudy
10:30 AM 42.8 °F - 35.6 °F 76% 29.30 in 6.2 mi NE 2.3 mph - N/A   Partly Cloudy
11:00 AM 42.8 °F 40.1 °F 35.6 °F 76% 29.30 in 6.2 mi ENE 4.6 mph - N/A   Partly Cloudy
11:30 AM 42.8 °F 41.1 °F 37.4 °F 81% 29.30 in 6.2 mi NE 3.5 mph - N/A   Scattered Clouds
12:00 PM 42 °F - 37 °F 75% 29.31 in 25 mi North 4.5 mph - -   Partly Cloudy
12:00 PM 42.8 °F 41.1 °F 37.4 °F 81% 29.30 in 6.2 mi NNE 3.5 mph - N/A   Scattered Clouds
12:30 PM 44.6 °F 40.2 °F 33.8 °F 66% 29.30 in 6.2 mi NNE 8.1 mph - N/A   Scattered Clouds
1:00 PM 46.4 °F 41.9 °F 33.8 °F 62% 29.30 in 6.2 mi North 9.2 mph - N/A   Scattered Clouds
1:30 PM 44.6 °F 38.8 °F 33.8 °F 66% 29.30 in 6.2 mi North 11.5 mph - N/A   Scattered Clouds
2:00 PM 44.6 °F 39.2 °F 33.8 °F 66% 29.30 in 6.2 mi North 10.4 mph - N/A   Scattered Clouds
2:30 PM 46.4 °F 41.5 °F 33.8 °F 62% 29.30 in 6.2 mi North 10.4 mph - N/A   Scattered Clouds
3:00 PM 44.6 °F 39.2 °F 32.0 °F 61% 29.30 in 6.2 mi North 10.4 mph - N/A   Scattered Clouds
3:30 PM 44.6 °F 39.2 °F 32.0 °F 61% 29.30 in 6.2 mi North 10.4 mph - N/A   Scattered Clouds
4:00 PM 46.4 °F 41.5 °F 28.4 °F 50% 29.30 in 6.2 mi North 10.4 mph - N/A   Scattered Clouds
4:30 PM 46.4 °F 41.5 °F 28.4 °F 50% 29.33 in 6.2 mi North 10.4 mph - N/A   Mostly Cloudy
5:00 PM - - - N/A% 29.33 in 6.2 mi North 8.1 mph - N/A   Scattered Clouds
5:30 PM 44.6 °F 39.7 °F 30.2 °F 57% 29.33 in 6.2 mi North 9.2 mph - N/A   Scattered Clouds
6:00 PM 43 °F - 32 °F 55% 29.36 in 25 mi NNW 6.7 mph - -   Scattered Clouds
6:00 PM 42.8 °F 39.3 °F 32.0 °F 66% 29.36 in 6.2 mi NNW 5.8 mph - N/A   Scattered Clouds
6:30 PM 42.8 °F 39.3 °F 33.8 °F 70% 29.36 in 6.2 mi NW 5.8 mph - N/A   Scattered Clouds
7:00 PM 41.0 °F 35.8 °F 33.8 °F 76% 29.36 in 6.2 mi WNW 8.1 mph - N/A   Scattered Clouds
7:30 PM 39.2 °F 35.0 °F 33.8 °F 81% 29.36 in 6.2 mi WNW 5.8 mph - N/A   Scattered Clouds
8:00 PM 39.2 °F 33.6 °F 32.0 °F 75% 29.36 in 6.2 mi NNW 8.1 mph - N/A   Scattered Clouds
8:30 PM 37.4 °F 32.8 °F 32.0 °F 81% 29.39 in 6.2 mi NW 5.8 mph - N/A   Scattered Clouds
9:00 PM 37.4 °F 33.8 °F 32.0 °F 81% 29.39 in 6.2 mi NW 4.6 mph - N/A   Scattered Clouds
9:30 PM 35.6 °F 29.9 °F 32.0 °F 87% 29.39 in 6.2 mi NW 6.9 mph - N/A   Scattered Clouds
10:00 PM 33.8 °F 28.6 °F 32.0 °F 93% 29.39 in 6.2 mi NNW 5.8 mph - N/A   Scattered Clouds
10:30 PM 33.8 °F 28.6 °F 32.0 °F 93% 29.39 in 6.2 mi NNW 5.8 mph - N/A   Partly Cloudy
11:00 PM 33.8 °F 27.7 °F 32.0 °F 93% 29.39 in - NW 6.9 mph - N/A   Clear
11:30 PM 33.8 °F 30.8 °F 30.2 °F 87% 29.39 in - North 3.5 mph - N/A   Clear